Location: Observatoires du Mont Megantic
(45.4500°N, 71.1500°W)
Time: 05:58:51
(UTC-05:00)

ISS - Visible Passes

Search period start: 17 January 2018 00:00
Search period end: 27 January 2018 00:00
Orbit: 401 x 406 km, 51.6° (Epoch: 17 January)

Date Brightness Start Highest point End Pass type
(mag) Time Alt. Az. Time Alt. Az. Time Alt. Az.
24 Jan -0.9 19:12:25 10° SW 19:12:48 13° SW 19:12:48 13° SW visible
25 Jan -2.5 18:20:22 10° SSW 18:22:48 26° SSE 18:22:48 26° SSE visible
26 Jan -1.8 17:28:48 10° S 17:30:48 15° SE 17:32:43 10° E visible
26 Jan -1.9 19:03:37 10° WSW 19:05:22 29° WSW 19:05:22 29° WSW visible
